DW9936 Weather Reports


Display with metric or nautical units.
time (UTC)temp
F
wind
direction
speed
MPH
gust
MPH
rain 1hr
in
rain 24hr
in
rain mn
in
humidity
%
barometer
mb
20260904101518 85 157 1.0 11.0 0.00 0.00 0.00 42 1017.0
20260904100014 84 193 3.0 15.0 0.00 0.00 0.00 43 1017.3
20260904094524 84 121 0.0 12.0 0.00 0.00 0.00 44 1017.5
20260904093008 83 338 2.0 9.0 0.00 0.00 0.00 46 1017.6
20260904091505 81 341 1.0 5.0 0.00 0.00 0.00 48 1017.7
20260904090002 80 159 0.0 5.0 0.00 0.00 0.00 50 1017.9
20260904084600 79 25 1.0 8.0 0.00 0.00 0.00 53 1018.0
20260904083107 77 77 0.0 2.0 0.00 0.00 0.00 58 1018.1
20260904081557 78 117 1.0 4.0 0.00 0.00 0.00 56 1018.2
20260904080104 80 92 0.0 6.0 0.00 0.00 0.00 53 1018.2
20260904074556 79 92 0.0 3.0 0.00 0.00 0.00 55 1018.3
20260904073101 76 94 0.0 4.0 0.00 0.00 0.00 57 1018.3
20260904071546 75 170 0.0 2.0 0.00 0.00 0.00 59 1018.5
20260904070045 74 149 0.0 2.0 0.00 0.00 0.00 62 1018.6
20260904064542 72 94 0.0 2.0 0.00 0.00 0.00 66 1018.6
20260904063035 69 252 0.0 0.0 0.00 0.00 0.00 73 1018.5
20260904061538 67 252 0.0 0.0 0.00 0.00 0.00 79 1018.6
20260904060046 64 252 0.0 0.0 0.00 0.00 0.00 81 1018.7
20260904054538 63 252 0.0 0.0 0.00 0.00 0.00 81 1018.5
20260904053024 62 252 0.0 0.0 0.00 0.00 0.00 81 1018.5
20260904051525 62 252 0.0 0.0 0.00 0.00 0.00 81 1018.7
20260904050037 61 252 0.0 0.0 0.00 0.00 0.00 82 1018.6
20260904044526 61 252 0.0 0.0 0.00 0.00 0.00 82 1018.6
20260904043019 61 252 0.0 0.0 0.00 0.00 0.00 82 1018.6
20260904041520 61 252 0.0 0.0 0.00 0.00 0.00 81 1018.6
20260904040033 62 252 0.0 0.0 0.00 0.00 0.00 81 1018.5
20260904034514 63 252 0.0 0.0 0.00 0.00 0.00 80 1018.7
20260904033011 63 252 0.0 0.0 0.00 0.00 0.00 80 1018.5
20260904031512 64 252 0.0 0.0 0.00 0.00 0.00 78 1018.4
20260904030006 64 252 0.0 0.0 0.00 0.00 0.00 77 1018.4
20260904024508 65 252 0.0 0.0 0.00 0.00 0.00 76 1018.4
20260904023007 65 252 0.0 0.0 0.00 0.00 0.00 76 1018.3
20260904021512 65 252 0.0 0.0 0.00 0.00 0.00 77 1018.3
20260904020004 65 252 0.0 0.0 0.00 0.00 0.00 76 1018.4
20260904014502 65 252 0.0 0.0 0.00 0.00 0.00 76 1018.3
20260904013124 65 252 0.0 0.0 0.00 0.00 0.00 75 1018.6
20260904011600 65 252 0.0 0.0 0.00 0.00 0.00 74 1018.5
20260904010059 65 252 0.0 0.0 0.00 0.00 0.00 75 1018.7
20260904004558 65 252 0.0 0.0 0.00 0.00 0.00 75 1018.8
20260904003056 65 252 0.0 0.0 0.00 0.00 0.00 75 1019.0
20260904001607 65 252 0.0 0.0 0.00 0.00 0.00 74 1019.2
20260904000054 65 252 0.0 0.0 0.00 0.00 0.00 73 1019.2
20260903234552 65 252 0.0 0.0 0.00 0.00 0.00 73 1019.1
20260903233049 66 252 0.0 0.0 0.00 0.00 0.00 70 1019.2
20260903231544 67 252 0.0 0.0 0.00 0.00 0.00 69 1019.2
20260903230041 68 252 0.0 1.0 0.00 0.00 0.00 68 1019.4
20260903224541 68 250 0.0 1.0 0.00 0.00 0.00 66 1019.5
20260903223041 69 232 0.0 1.0 0.00 0.00 0.00 64 1019.5
20260903221534 70 226 0.0 0.0 0.00 0.00 0.00 63 1019.6
20260903220032 70 309 0.0 1.0 0.00 0.00 0.00 62 1019.6
20260903214537 70 327 0.0 1.0 0.00 0.00 0.00 61 1019.8
20260903213042 70 327 0.0 2.0 0.00 0.00 0.00 61 1020.0
20260903211531 71 324 0.0 4.0 0.00 0.00 0.00 61 1019.7
20260903210033 71 321 0.0 3.0 0.00 0.00 0.00 60 1019.6
20260903204530 71 348 0.0 3.0 0.00 0.00 0.00 59 1019.8
20260903203029 71 321 0.0 4.0 0.00 0.00 0.00 59 1019.8
20260903201529 72 325 1.0 6.0 0.00 0.00 0.00 58 1019.9
20260903200029 72 32 0.0 4.0 0.00 0.00 0.00 56 1019.9
20260903194528 73 319 1.0 6.0 0.00 0.00 0.00 55 1019.8
20260903193028 74 338 1.0 10.0 0.00 0.00 0.00 53 1019.7
20260903191537 75 34 0.0 6.0 0.00 0.00 0.00 51 1019.5
20260903190027 75 340 0.0 8.0 0.00 0.00 0.00 49 1019.1
20260903184526 76 347 1.0 9.0 0.00 0.00 0.00 48 1018.8
20260903183030 76 334 0.0 2.0 0.00 0.00 0.00 49 1018.7
20260903181526 76 333 0.0 2.0 0.00 0.00 0.00 48 1018.5
20260903180032 76 333 0.0 4.0 0.00 0.00 0.00 47 1018.4
20260903174525 76 332 0.0 5.0 0.00 0.00 0.00 47 1018.2
20260903173024 77 338 0.0 5.0 0.00 0.00 0.00 46 1018.1
20260903171530 77 303 0.0 4.0 0.00 0.00 0.00 46 1018.1
20260903170024 78 326 1.0 6.0 0.00 0.00 0.00 45 1018.2
20260903164523 78 330 0.0 4.0 0.00 0.00 0.00 44 1018.2
20260903163023 78 351 0.0 5.0 0.00 0.00 0.00 44 1018.0
20260903161522 79 26 0.0 2.0 0.00 0.00 0.00 44 1018.0
20260903160022 79 17 0.0 5.0 0.00 0.00 0.00 43 1018.0
20260903154521 80 294 2.0 6.0 0.00 0.00 0.00 42 1017.9
20260903153020 80 351 1.0 10.0 0.00 0.00 0.00 42 1017.6
20260903151518 80 360 0.0 5.0 0.00 0.00 0.00 42 1017.9
20260903150020 80 199 0.0 9.0 0.00 0.00 0.00 42 1017.8
20260903144520 81 126 1.0 9.0 0.00 0.00 0.00 41 1017.9
20260903143018 81 309 2.0 8.0 0.00 0.00 0.00 41 1017.9
20260903141517 82 355 0.0 4.0 0.00 0.00 0.00 40 1018.0
20260903140017 82 327 2.0 12.0 0.00 0.00 0.00 39 1018.0
20260903134516 82 360 0.0 10.0 0.00 0.00 0.00 40 1017.9
20260903133015 82 312 2.0 9.0 0.00 0.00 0.00 39 1017.8
20260903131517 82 316 0.0 10.0 0.00 0.00 0.00 39 1018.0
20260903130013 83 338 1.0 5.0 0.00 0.00 0.00 38 1018.0
20260903124512 82 288 3.0 12.0 0.00 0.00 0.00 38 1018.0
20260903123011 84 333 2.0 10.0 0.00 0.00 0.00 36 1018.3
20260903121521 83 323 2.0 8.0 0.00 0.00 0.00 39 1018.5
20260903120009 84 344 1.0 16.0 0.00 0.00 0.00 38 1018.5
20260903114506 83 319 2.0 8.0 0.00 0.00 0.00 38 1018.6
20260903113007 83 340 3.0 12.0 0.00 0.00 0.00 38 1018.7
20260903111501 82 335 3.0 12.0 0.00 0.00 0.00 37 1018.7
20260903110103 80 44 1.0 14.0 0.00 0.00 0.00 40 1018.9
20260903104558 80 43 2.0 8.0 0.00 0.00 0.00 39 1018.9
20260903103057 80 323 1.0 9.0 0.00 0.00 0.00 40 1019.0